When you browse on this site, cookies collect data to enhance your experience and personalize the content and advertising you see.
Visit our Privacy Policy to learn more. By continuing to use the site, you agree to this use of cookies and data.
  • In Hungary
  • List of Countries
  • For 7 days
  • Water Temperature
  • Weather Map
  • News
  • Weather Widgets
  • user-avatar
    Login

    Hourly Weather Kalach-Kurtlak

    Today, 16 October, Wednesday

    Time Temperature Precipitation Wind Pressure Humidity
    00:00 +15°C° 0 mm 2 mps 758 mmHg 68%
    01:00 +15°C° 0 mm 2 mps 758 mmHg 72%
    02:00 +14°C° 0 mm 2 mps 758 mmHg 77%
    03:00 +14°C° 0 mm 2 mps 758 mmHg 80%
    04:00 +13°C° 0 mm 2 mps 759 mmHg 83%
    05:00 +13°C° 0 mm 2 mps 759 mmHg 86%
    06:00 +11°C° 0 mm 3 mps 759 mmHg 90%
    07:00 +12°C° 0 mm 3 mps 759 mmHg 85%
    08:00 +13°C° 0 mm 3 mps 760 mmHg 80%
    09:00 +14°C° 0 mm 3 mps 760 mmHg 76%
    10:00 +17°C° 0 mm 4 mps 760 mmHg 70%
    11:00 +18°C° 0 mm 4 mps 760 mmHg 65%
    12:00 +19°C° 0 mm 4 mps 760 mmHg 60%
    13:00 +19°C° 0 mm 4 mps 760 mmHg 59%
    14:00 +19°C° 0 mm 4 mps 761 mmHg 59%
    15:00 +19°C° 0 mm 4 mps 761 mmHg 58%
    16:00 +18°C° 0 mm 4 mps 761 mmHg 61%
    17:00 +17°C° 0 mm 4 mps 761 mmHg 64%
    18:00 +15°C° 0 mm 4 mps 761 mmHg 67%
    19:00 +14°C° 0 mm 4 mps 761 mmHg 67%
    20:00 +13°C° 0 mm 4 mps 762 mmHg 68%
    21:00 +12°C° 0 mm 4 mps 762 mmHg 68%
    22:00 +12°C° 0 mm 4 mps 762 mmHg 68%
    23:00 +11°C° 0 mm 4 mps 762 mmHg 68%

    Tomorrow, 17 October, Thursday

    Time Temperature Precipitation Wind Pressure Humidity
    00:00 +11°C° 0 mm 4 mps 762 mmHg 68%
    01:00 +10°C° 0 mm 4 mps 762 mmHg 71%
    02:00 +10°C° 0 mm 4 mps 762 mmHg 73%
    03:00 +10°C° 0 mm 4 mps 762 mmHg 76%
    04:00 +8°C° 0 mm 4 mps 762 mmHg 75%
    05:00 +8°C° 0 mm 4 mps 762 mmHg 74%
    06:00 +7°C° 0 mm 4 mps 762 mmHg 74%
    07:00 +8°C° 0 mm 4 mps 762 mmHg 69%
    08:00 +9°C° 0 mm 5 mps 762 mmHg 65%
    09:00 +10°C° 0 mm 5 mps 762 mmHg 60%
    10:00 +13°C° 0 mm 5 mps 762 mmHg 58%
    11:00 +14°C° 0 mm 5 mps 762 mmHg 55%
    12:00 +16°C° 0 mm 5 mps 762 mmHg 53%
    13:00 +16°C° 0 mm 5 mps 761 mmHg 53%
    14:00 +17°C° 0 mm 5 mps 761 mmHg 53%
    15:00 +17°C° 0 mm 5 mps 761 mmHg 53%
    16:00 +17°C° 0 mm 4 mps 760 mmHg 58%
    17:00 +15°C° 0 mm 4 mps 760 mmHg 64%
    18:00 +13°C° 0 mm 3 mps 760 mmHg 69%
    19:00 +13°C° 0 mm 3 mps 760 mmHg 71%
    20:00 +12°C° 0 mm 3 mps 760 mmHg 72%
    21:00 +12°C° 0 mm 4 mps 760 mmHg 74%
    22:00 +11°C° 0 mm 3 mps 760 mmHg 75%
    23:00 +11°C° 0 mm 3 mps 759 mmHg 75%

    Day after tomorrow, 18 October, Friday

    Time Temperature Precipitation Wind Pressure Humidity
    00:00 +11°C° 0 mm 3 mps 759 mmHg 76%
    01:00 +10°C° 0 mm 3 mps 759 mmHg 76%
    02:00 +10°C° 0 mm 2 mps 759 mmHg 77%
    03:00 +10°C° 0 mm 2 mps 758 mmHg 77%
    04:00 +10°C° 0 mm 2 mps 758 mmHg 79%
    05:00 +9°C° 0 mm 2 mps 758 mmHg 81%
    06:00 +9°C° 0 mm 2 mps 758 mmHg 83%
    07:00 +12°C° 0 mm 2 mps 758 mmHg 79%
    08:00 +13°C° 0 mm 2 mps 758 mmHg 74%
    09:00 +14°C° 0 mm 2 mps 758 mmHg 70%
    10:00 +16°C° 0 mm 2 mps 758 mmHg 63%
    11:00 +17°C° 0 mm 2 mps 758 mmHg 56%
    12:00 +19°C° 0 mm 2 mps 757 mmHg 49%
    13:00 +20°C° 0 mm 2 mps 757 mmHg 46%
    14:00 +21°C° 0 mm 1 mps 757 mmHg 43%
    15:00 +22°C° 0 mm 1 mps 756 mmHg 40%
    16:00 +20°C° 0 mm 1 mps 756 mmHg 45%
    17:00 +19°C° 0 mm 1 mps 756 mmHg 50%
    18:00 +15°C° 0 mm 0 mps 756 mmHg 54%
    19:00 +15°C° 0 mm 0 mps 757 mmHg 56%
    20:00 +14°C° 0 mm 0 mps 757 mmHg 58%
    21:00 +14°C° 0 mm 0 mps 757 mmHg 59%
    22:00 +14°C° 0 mm 0 mps 757 mmHg 61%
    23:00 +14°C° 0 mm 1 mps 757 mmHg 63%

    19 October, Saturday

    Time Temperature Precipitation Wind Pressure Humidity
    00:00 +14°C° 0 mm 1 mps 757 mmHg 65%
    01:00 +13°C° 0 mm 1 mps 757 mmHg 68%
    02:00 +13°C° 0 mm 1 mps 757 mmHg 72%
    03:00 +13°C° 0 mm 2 mps 757 mmHg 75%
    04:00 +12°C° 0 mm 2 mps 757 mmHg 79%
    05:00 +12°C° 0 mm 2 mps 758 mmHg 82%
    06:00 +10°C° 0 mm 2 mps 758 mmHg 85%
    07:00 +11°C° 0 mm 3 mps 758 mmHg 82%
    08:00 +12°C° 0 mm 3 mps 758 mmHg 79%
    09:00 +13°C° 0 mm 3 mps 759 mmHg 76%
    10:00 +16°C° 0 mm 3 mps 759 mmHg 70%
    11:00 +17°C° 0 mm 3 mps 759 mmHg 64%
    12:00 +18°C° 0 mm 4 mps 759 mmHg 58%
    13:00 +18°C° 0 mm 4 mps 759 mmHg 57%
    14:00 +18°C° 0 mm 4 mps 759 mmHg 55%
    15:00 +18°C° 0 mm 4 mps 759 mmHg 53%
    16:00 +17°C° 0 mm 4 mps 759 mmHg 57%
    17:00 +16°C° 0 mm 3 mps 759 mmHg 60%
    18:00 +13°C° 0 mm 3 mps 760 mmHg 64%
    19:00 +13°C° 0 mm 3 mps 760 mmHg 66%
    20:00 +12°C° 0 mm 3 mps 760 mmHg 68%
    21:00 +11°C° 0 mm 3 mps 761 mmHg 69%
    22:00 +11°C° 0 mm 3 mps 761 mmHg 71%
    23:00 +10°C° 0 mm 3 mps 761 mmHg 72%

    20 October, Sunday

    Time Temperature Precipitation Wind Pressure Humidity
    00:00 +10°C° 0 mm 3 mps 761 mmHg 73%
    01:00 +10°C° 0 mm 3 mps 761 mmHg 75%
    02:00 +9°C° 0 mm 3 mps 761 mmHg 76%
    03:00 +9°C° 0 mm 3 mps 762 mmHg 77%
    04:00 +9°C° 0 mm 2 mps 762 mmHg 78%
    05:00 +9°C° 0 mm 2 mps 762 mmHg 80%
    06:00 +9°C° 0 mm 2 mps 762 mmHg 81%
    07:00 +10°C° 0 mm 2 mps 763 mmHg 76%
    08:00 +11°C° 0 mm 3 mps 763 mmHg 72%
    09:00 +12°C° 0 mm 3 mps 763 mmHg 67%
    10:00 +14°C° 0 mm 3 mps 763 mmHg 62%
    11:00 +16°C° 0 mm 3 mps 763 mmHg 56%
    12:00 +17°C° 0 mm 3 mps 763 mmHg 51%
    13:00 +18°C° 0 mm 3 mps 763 mmHg 50%
    14:00 +18°C° 0 mm 3 mps 763 mmHg 49%
    15:00 +18°C° 0 mm 3 mps 763 mmHg 48%
    16:00 +17°C° 0 mm 3 mps 763 mmHg 53%
    17:00 +16°C° 0 mm 2 mps 763 mmHg 58%
    18:00 +14°C° 0 mm 2 mps 763 mmHg 63%
    19:00 +14°C° 0 mm 2 mps 763 mmHg 65%
    20:00 +13°C° 0 mm 2 mps 764 mmHg 68%
    21:00 +13°C° 0 mm 2 mps 764 mmHg 70%
    22:00 +12°C° 0 mm 2 mps 764 mmHg 73%
    23:00 +12°C° 0 mm 2 mps 764 mmHg 76%

    21 October, Monday

    Time Temperature Precipitation Wind Pressure Humidity
    00:00 +10°C° 0 mm 2 mps 764 mmHg 79%
    01:00 +11°C° 0 mm 1 mps 764 mmHg 80%
    02:00 +11°C° 0 mm 1 mps 764 mmHg 82%
    03:00 +10°C° 0 mm 1 mps 764 mmHg 83%
    04:00 +10°C° 0 mm 1 mps 764 mmHg 84%
    05:00 +10°C° 0 mm 1 mps 765 mmHg 84%
    06:00 +10°C° 0 mm 1 mps 765 mmHg 85%
    07:00 +11°C° 0 mm 1 mps 765 mmHg 79%
    08:00 +12°C° 0 mm 1 mps 765 mmHg 73%
    09:00 +13°C° 0 mm 2 mps 765 mmHg 67%
    10:00 +14°C° 0 mm 2 mps 765 mmHg 62%
    11:00 +16°C° 0 mm 2 mps 765 mmHg 57%
    12:00 +17°C° 0 mm 2 mps 765 mmHg 52%
    13:00 +17°C° 0 mm 2 mps 765 mmHg 51%
    14:00 +17°C° 0 mm 2 mps 764 mmHg 49%
    15:00 +18°C° 0 mm 2 mps 764 mmHg 48%
    16:00 +16°C° 0 mm 2 mps 764 mmHg 53%
    17:00 +15°C° 0 mm 2 mps 764 mmHg 57%
    18:00 +14°C° 0 mm 1 mps 763 mmHg 61%
    19:00 +13°C° 0 mm 1 mps 764 mmHg 63%
    20:00 +13°C° 0 mm 1 mps 764 mmHg 64%
    21:00 +12°C° 0 mm 1 mps 764 mmHg 66%
    22:00 +12°C° 0 mm 1 mps 763 mmHg 67%
    23:00 +11°C° 0 mm 1 mps 763 mmHg 69%
    Show more